User: anonymous
Location: Caltech
(34.1382°N, 118.1253°W)
Time: 01:24:36
(UTC-07:00)
Language:

Cosmos 2219 - Orbit

View from above orbital plane
View from above orbital plane
View from above satellite
View from above satellite

Ground track
Ground track

The orbit data is extracted from the following two-line orbital elements,

1 22219U 92076A   14274.72181691  .00000375  00000-0  22393-3 0  6223
2 22219 071.0594 104.4423 0016412 099.3468 333.4141 14.13500590128395
Epoch (UTC): 01 October 2014 17:19:24
Eccentricity: 0.0016412
inclination: 71.0594°
perigee height: 835 km
apogee height: 859 km
right ascension of ascending node: 104.4423°
argument of perigee: 99.3468°
revolutions per day: 14.13500590
mean anomaly at epoch: 333.4141°
orbit number at epoch: 12839

The dashed part of the orbit path shows where the satellite is in the earth's shadow,  

DLR